HB9BHU-8 Weather Reports


Display with metric or nautical units.
time (UTC)temp
F
wind
direction
speed
MPH
gust
MPH
rain 1hr
in
rain 24hr
in
rain mn
in
humidity
%
barometer
mb
20260506160018 52 234 4.0 13.0 0.00 0.00 0.00 86 1011.8
20260506154519 52 229 4.0 14.0 0.00 0.00 0.00 85 1011.9
20260506153023 52 199 8.0 18.0 0.00 0.00 0.00 85 1011.9
20260506151518 52 202 6.0 15.0 0.00 0.00 0.00 86 1011.9
20260506150018 52 216 6.0 13.0 0.00 0.00 0.00 88 1011.9
20260506144516 51 230 10.0 15.0 0.00 0.00 0.00 88 1011.8
20260506143023 52 192 10.0 16.0 0.00 0.00 0.00 89 1011.7
20260506141515 51 234 10.0 17.0 0.00 0.00 0.00 89 1011.6
20260506140019 51 207 9.0 15.0 0.00 0.00 0.00 89 1011.4
20260506134516 51 230 3.0 13.0 0.00 0.00 0.00 91 1011.5
20260506133016 51 244 4.0 14.0 0.00 0.00 0.00 92 1011.4
20260506131514 50 233 8.0 19.0 0.00 0.00 0.00 92 1011.4
20260506130012 50 216 6.0 19.0 0.00 0.00 0.00 93 1011.4
20260506124513 50 238 7.0 14.0 0.00 0.00 0.00 93 1011.5
20260506123012 49 209 11.0 17.0 0.00 0.00 0.00 93 1011.3
20260506121511 50 254 9.0 20.0 0.00 0.00 0.00 94 1011.1
20260506120010 50 215 11.0 19.0 0.00 0.00 0.00 94 1010.9
20260506114510 50 268 11.0 23.0 0.00 0.00 0.00 94 1010.8
20260506113010 51 209 11.0 30.0 0.00 0.00 0.00 94 1010.4
20260506111505 52 232 19.0 29.0 0.00 0.00 0.00 92 1009.9
20260506110003 53 238 14.0 18.0 0.00 0.00 0.00 91 1009.8
20260506104504 54 223 12.0 18.0 0.00 0.00 0.00 90 1009.6
20260506103108 54 244 7.0 11.0 0.00 0.00 0.00 91 1009.6
20260506101558 54 249 6.0 9.0 0.00 0.00 0.00 91 1009.6
20260506100058 54 248 5.0 8.0 0.00 0.00 0.00 91 1009.4
20260506094558 54 259 3.0 7.0 0.00 0.00 0.00 92 1009.4
20260506093056 54 267 0.0 2.0 0.00 0.00 0.00 92 1009.4
20260506091556 53 266 1.0 3.0 0.00 0.00 0.00 92 1009.5
20260506090050 53 290 1.0 5.0 0.00 0.00 0.00 91 1009.1
20260506084550 54 217 0.0 2.0 0.00 0.00 0.00 90 1009.2
20260506083050 54 117 0.0 0.0 0.00 0.00 0.00 89 1009.1
20260506081556 54 111 0.0 0.0 0.00 0.00 0.00 90 1009.0
20260506073048 53 110 0.0 0.0 0.00 0.00 0.00 92 1009.0
20260506071545 53 113 0.0 0.0 0.00 0.00 0.00 93 1009.1
20260506061539 50 113 0.0 0.0 0.00 0.00 0.00 96 1009.1
20260506044531 49 111 0.0 4.0 0.00 0.00 0.00 95 1009.2
20260506043019 50 111 3.0 7.0 0.00 0.00 0.00 95 1009.2
20260506041515 50 100 2.0 5.0 0.00 0.00 0.00 94 1009.4
20260506040025 50 61 1.0 3.0 0.00 0.00 0.00 95 1009.3
20260506034513 50 341 0.0 3.0 0.00 0.00 0.00 95 1009.5
20260506033014 50 329 3.0 5.0 0.00 0.00 0.00 94 1009.7
20260506031510 51 308 1.0 4.0 0.00 0.00 0.00 92 1009.8
20260506030007 52 307 2.0 4.0 0.00 0.00 0.00 90 1009.9
20260506024516 53 193 0.0 5.0 0.00 0.00 0.00 89 1010.2
20260506023004 53 194 2.0 7.0 0.00 0.00 0.00 89 1010.4
20260506021504 52 170 2.0 6.0 0.00 0.00 0.00 90 1010.4
20260506020002 53 169 0.0 3.0 0.00 0.00 0.00 90 1010.4
20260506014559 53 184 0.0 4.0 0.00 0.00 0.00 90 1010.7
20260506013057 52 200 0.0 2.0 0.00 0.00 0.00 92 1011.0
20260506011556 52 196 0.0 0.0 0.00 0.00 0.00 93 1011.2
20260506010057 52 196 0.0 0.0 0.00 0.00 0.00 92 1011.3
20260506004554 52 196 0.0 0.0 0.00 0.00 0.00 92 1011.2
20260506003057 52 196 1.0 6.0 0.00 0.00 0.00 92 1011.5
20260506001604 52 160 2.0 6.0 0.00 0.00 0.00 92 1011.7
20260506000048 52 234 3.0 6.0 0.00 0.00 0.00 93 1011.6
20260505234607 52 167 0.0 0.0 0.00 0.00 0.00 94 1011.7
20260505233048 52 159 0.0 3.0 0.00 0.00 0.00 95 1011.8
20260505231543 51 143 0.0 3.0 0.00 0.00 0.00 95 1012.1
20260505230046 51 125 3.0 5.0 0.00 0.00 0.00 95 1012.2
20260505224541 51 130 0.0 3.0 0.00 0.00 0.00 95 1012.2
20260505223049 51 113 0.0 0.0 0.00 0.00 0.00 95 1012.2
20260505221540 51 113 0.0 0.0 0.00 0.00 0.00 95 1012.2
20260505220040 51 113 3.0 5.0 0.00 0.00 0.00 94 1012.2
20260505214551 52 115 2.0 4.0 0.00 0.00 0.00 94 1012.3
20260505213037 52 123 2.0 5.0 0.00 0.00 0.00 94 1012.3
20260505211542 52 129 3.0 7.0 0.00 0.00 0.00 94 1012.5
20260505210036 52 111 4.0 7.0 0.00 0.00 0.00 93 1012.4
20260505204537 53 117 1.0 4.0 0.00 0.00 0.00 93 1012.6
20260505203049 53 115 3.0 7.0 0.00 0.00 0.00 92 1012.4
20260505201535 54 117 4.0 8.0 0.00 0.00 0.00 93 1012.3
20260505200034 54 121 3.0 7.0 0.00 0.00 0.00 92 1012.1
20260505194535 54 120 2.0 4.0 0.00 0.00 0.00 91 1012.1
20260505193034 55 119 4.0 8.0 0.00 0.00 0.00 91 1011.9
20260505191538 55 131 3.0 7.0 0.00 0.00 0.00 90 1011.7
20260505190035 56 126 3.0 5.0 0.00 0.00 0.00 87 1011.5
20260505184544 57 121 2.0 6.0 0.00 0.00 0.00 85 1011.4
20260505183039 58 193 3.0 8.0 0.00 0.00 0.00 84 1011.4
20260505181531 58 187 3.0 7.0 0.00 0.00 0.00 84 1011.3
20260505180031 58 190 5.0 7.0 0.00 0.00 0.00 83 1011.5
20260505174531 58 192 2.0 9.0 0.00 0.00 0.00 86 1011.4
20260505173031 57 172 2.0 8.0 0.00 0.00 0.00 86 1011.5
20260505171530 57 157 3.0 7.0 0.00 0.00 0.00 87 1011.3
20260505170036 56 182 5.0 10.0 0.00 0.00 0.00 88 1011.3
20260505164534 56 179 3.0 7.0 0.00 0.00 0.00 88 1011.1
20260505163029 56 211 3.0 7.0 0.00 0.00 0.00 88 1011.2
20260505161528 56 215 2.0 8.0 0.00 0.00 0.00 88 1011.4